Regional Weather Roundup
Issued by NWS Jackson, KY

Home | Current Version | Previous Version | Graphics & Text | Print | Product List | Glossary On
Versions: 1 2 3 4 5 6 7 8 9 10 11 12 13 14 15 16 17 18 19 20 21 22 23 24 25 26 27
000
ASUS43 KJKL 310110
RWRJKL

EAST KENTUCKY HOURLY WEATHER ROUNDUP
NATIONAL WEATHER SERVICE JACKSON KY
900 PM EDT SAT JUL 30 2016

NOTE: "FAIR" INDICATES FEW OR NO CLOUDS BELOW 12,000 FEET WITH
NO SIGNIFICANT WEATHER AND/OR OBSTRUCTIONS TO VISIBILITY.

* THESE REPORTS ARE NOT UNDER NWS QUALITY CONTROL AND MAY NOT
  REPORT WEATHER SUCH AS PRECIPITATION AND FOG.

KYZ079-080-083-085-087-088-110-112-115-119-120-310200
...EASTERN KENTUCKY...

CITY           SKY/WX    TMP DP  RH WIND       PRES   REMARKS
JACKSON        CLOUDY    76  70  82 CALM      30.00R
LONDON         CLEAR     81  67  62 SW3       30.00R
SOMERSET*      PTCLDY    77  70  78 W3        30.00R
MONTICELLO*    PTCLDY   N/A N/A N/A W13       30.01R
WILLIAMSBURG*  CLEAR     79  72  78 CALM      30.00S
MIDDLESBORO*   PTCLDY    75  72  90 SW5       30.01S
HARLAN APT*      N/A     72  70  94 CALM      30.03R
PIKE CO APT*   MOCLDY    76  73  90 NE3       30.01S
MOREHEAD APT*  MOCLDY    73  70  88 S6        30.00S
ASHLAND*       MOCLDY    79  73  83 CALM      29.93S
$$

KYZ035-036-041-042-044-050-067-078-099-310200
...CENTRAL KENTUCKY...

CITY           SKY/WX    TMP DP  RH WIND       PRES   REMARKS
MT STERLING*   CLEAR     72  72 100 CALM      30.00S
FLEMING/MASON* CLEAR     72  68  87 CALM      29.99R
DANVILLE*      MOCLDY    73  68  83 NW7       30.01R
LEXINGTON      MOCLDY    76  69  79 S5        29.99R
FRANKFORT      PTCLDY    75  71  87 CALM      29.96R
LOUISVILLE     MOCLDY    78  66  66 SW3       29.94F
LEBANON*         N/A     73  72  94 SE3       29.99S
GLASGOW*       CLOUDY    77  76  98 W8        29.98R
BOWLING GREEN  CLEAR     78  71  79 E3        29.97R
$$

KYZ091>093-OHZ055-061-077-WVZ005-015-034-035-042-310200
...SOUTHERN OHIO/WEST VIRGINIA...

CITY           SKY/WX    TMP DP  RH WIND       PRES   REMARKS
COVINGTON      PTCLDY    77  70  79 W3        29.95S
COLUMBUS       CLOUDY    75  67  76 E7        29.94R
DAYTON         PTCLDY    77  68  73 NW3       29.95S
WILMINGTON     CLEAR     75  70  84 S5        29.94S
HUNTINGTON       N/A     82  69  64 CALM      29.95S
CHARLESTON       N/A     77  71  82 SE3       29.97S
PINEVILLE*       N/A     71  66  84 MISG      30.09R
BECKLEY          N/A     71  65  81 SW3       30.07R
BLUEFIELD        N/A     71  66  84 W3        30.10R
LOGAN CO APT*    N/A     73  72  94 CALM      30.01S
$$

VAZ002-007-008-TNZ017-027-036-066-071-310200
...SOUTHWEST VIRGINIA/EAST TENNESSEE...

CITY           SKY/WX    TMP DP  RH WIND       PRES   REMARKS
WISE*            N/A     72  68  88 S5        30.10S
JONESVILLE*      N/A     75  75 100 CALM      30.04R
ABINGDON*        N/A     76  70  81 CALM      30.06S
BRISTOL        PTCLDY    78  69  73 CALM      30.02R
MORRISTOWN*    MOCLDY    77  73  88 CALM      30.01R
SEVIERVILLE*   CLEAR     84  66  54 CALM      29.99R
KNOXVILLE      MOCLDY    83  71  67 SW5       29.99R
OAK RIDGE      PTCLDY    83  69  62 W3        30.01R
CROSSVILLE     CLEAR     76  70  82 CALM      30.06R
NASHVILLE      MOCLDY    84  69  60 W3        29.98R
$$

...KEY TO REMARKS...
VSB - VISIBILITY IN MILES
WCI - WIND CHILL INDEX
HX  - HEAT INDEX

$$




USA.gov is the U.S. government's official web portal to all federal, state and local government web resources and services.